Fairfield, PA

5:41 AM EST on February 27, 2017 (GMT -0500)
Fountain Dale

Weather History for KRYT - November, 2012

Change the Weather History Date:

Thursday, November 1, 2012

  Actual Average (KHGR) Record (KHGR)
Temperature  
Mean Temperature 46 °F -  
Max Temperature 50 °F 56 °F 73 °F (2003)
Min Temperature 42 °F 39 °F 33 °F (2002)
Degree Days  
Heating Degree Days 19    
Moisture  
Dew Point 34 °F    
Average Humidity 64    
Maximum Humidity 74    
Minimum Humidity 54    
Precipitation  
Precipitation 0.08 in - - ()
Sea Level Pressure  
Sea Level Pressure 29.65 in    
Wind  
Wind Speed 7 mph (SW)    
Max Wind Speed 12 mph    
Max Gust Speed 21 mph    
Visibility 10 miles    
Events Rain    
Averages and records for this station are not official NWS values.
T = Trace of Precipitation, MM = Missing Value Source: NWS Daily Summary

Daily Weather History Graph

Daily Weather History Graph

Search for Another Location

Airport or City:

Trip Planner

Search our weather history database for the weather conditions in past years. The results will help you decide how hot, cold, wet, or windy it might be!

Date:

Astronomy

Nov. 01, 2012 Rise Set
Actual Time 7:38 AM EDT 6:07 PM EDT
Civil Twilight 7:10 AM EDT 6:35 PM EDT
Nautical Twilight 6:38 AM EDT 7:07 PM EDT
Astronomical Twilight 6:07 AM EDT 7:38 PM EDT
Moon 8:03 PM EDT (11/1) 10:09 AM EDT (11/1)
Length of Visible Light 11h 24m
Length of Day
10h 28m
Waning Gibbous, 93% of the Moon is Illuminated
Nov 1
Waning Gibbous
Nov 6
Last Quarter
Nov 13
New
Nov 20
First Quarter
Nov 28
Full

Hourly Weather History & Observations

Time (EDT) Temp. Windchill Dew Point Humidity Pressure Visibility Wind Dir Wind Speed Gust Speed Precip Events Conditions
12:53 AM 45.0 °F 40.1 °F 33.1 °F 63% 29.61 in 10.0 mi SW 9.2 mph 19.6 mph N/A   Overcast
1:53 AM 45.0 °F 41.2 °F 33.1 °F 63% 29.61 in 10.0 mi Variable 6.9 mph - 0.00 in   Overcast
2:53 AM 45.0 °F 41.2 °F 33.1 °F 63% 29.60 in 10.0 mi Variable 6.9 mph 20.7 mph N/A   Overcast
3:53 AM 45.0 °F 41.2 °F 33.1 °F 63% 29.61 in 10.0 mi SSW 6.9 mph - N/A   Overcast
4:53 AM 44.1 °F 38.1 °F 33.1 °F 65% 29.62 in 10.0 mi SW 11.5 mph 17.3 mph 0.00 in Rain Light Rain
5:53 AM 44.1 °F 39.5 °F 34.0 °F 68% 29.62 in 10.0 mi SW 8.1 mph 20.7 mph 0.01 in Rain Light Rain
6:53 AM 43.0 °F 38.8 °F 34.0 °F 71% 29.63 in 10.0 mi Variable 6.9 mph - 0.01 in Rain Light Rain
7:53 AM 44.1 °F 40.8 °F 34.0 °F 68% 29.64 in 10.0 mi Variable 5.8 mph - 0.01 in Rain Light Rain
8:40 AM 42.8 °F 38.0 °F 33.8 °F 70% 29.63 in 9.0 mi SW 8.1 mph 19.6 mph 0.02 in Rain Light Rain
8:53 AM 43.0 °F 38.8 °F 34.0 °F 71% 29.65 in 10.0 mi SSW 6.9 mph - 0.02 in Rain Light Rain
9:53 AM 43.0 °F 37.7 °F 35.1 °F 74% 29.67 in 10.0 mi SW 9.2 mph - 0.02 in Rain Light Rain
10:53 AM 46.0 °F 41.9 °F 37.0 °F 71% 29.67 in 10.0 mi SW 8.1 mph - 0.01 in   Overcast
11:33 AM 46.4 °F 43.5 °F 35.6 °F 66% 29.65 in 10.0 mi SW 5.8 mph - N/A   Overcast
11:43 AM 46.4 °F 42.9 °F 35.6 °F 66% 29.65 in 10.0 mi Variable 6.9 mph - 0.00 in Rain Light Rain
11:53 AM 46.0 °F 43.1 °F 35.1 °F 66% 29.67 in 10.0 mi Variable 5.8 mph 17.3 mph 0.00 in   Overcast
12:51 PM 46.4 °F 42.4 °F 35.6 °F 66% 29.64 in 10.0 mi WNW 8.1 mph - N/A   Overcast
12:53 PM 46.9 °F - 35.1 °F 63% 29.66 in 10.0 mi Variable 3.5 mph - N/A   Overcast
1:04 PM 46.4 °F 41.9 °F 35.6 °F 66% 29.64 in 10.0 mi NW 9.2 mph - 0.00 in Rain Light Rain
1:53 PM 48.0 °F - 35.1 °F 61% 29.64 in 10.0 mi Variable 5.8 mph 17.3 mph 0.00 in Rain Light Rain
2:53 PM 48.0 °F - 34.0 °F 58% 29.64 in 10.0 mi West 8.1 mph 16.1 mph 0.00 in   Overcast
3:53 PM 50.0 °F - 34.0 °F 54% 29.65 in 10.0 mi Variable 4.6 mph - N/A   Overcast
4:53 PM 48.9 °F - 34.0 °F 56% 29.65 in 10.0 mi Variable 3.5 mph - N/A   Overcast
5:53 PM 48.0 °F - 34.0 °F 58% 29.67 in 10.0 mi WSW 8.1 mph - N/A   Overcast
6:53 PM 46.9 °F - 33.1 °F 59% 29.69 in 10.0 mi Variable 4.6 mph - N/A   Overcast
7:53 PM 46.9 °F - 34.0 °F 61% 29.69 in 10.0 mi Variable 6.9 mph - N/A   Overcast
8:53 PM 46.9 °F - 33.1 °F 59% 29.70 in 10.0 mi Variable 5.8 mph - N/A   Overcast
9:53 PM 46.9 °F - 33.1 °F 59% 29.71 in 10.0 mi Variable 3.5 mph - N/A   Overcast
10:53 PM 46.9 °F - 33.1 °F 59% 29.71 in 10.0 mi Variable 3.5 mph - N/A   Overcast
11:53 PM 46.0 °F 44.8 °F 32.0 °F 58% 29.71 in 10.0 mi Variable 3.5 mph - N/A   Mostly Cloudy